Rbgn^[z[y[W
メイン
   新天体発見情報
     Comet C/2017 B3 (LINEAR)
投稿するにはまず登録を

スレッド表示 | 新しいものから 前のトピック | 次のトピック | 下へ
投稿者 スレッド
佐藤裕久
投稿日時: 2017-2-13 12:57
モデレータ
登録日: 2005-6-12
居住地: 日本
投稿: 1786
オンライン
Comet C/2017 B3 (LINEAR)

1月日26日、外見上小惑星状天体が、LINEAR サーベイのコースに、ニューメキシコ州、White 
Sands Missile RangeにあるSpace Surveillance Telescope,Atom Siteの3.5-m f/1 反射望遠鏡
で得たCCD画像から見つかった。
小惑星センターのNEOCPとPCCP webpageに公表後、S. Foglia, L. Buzzi, P. Concari, 
C. Cremaschini, G. GalliとM. Tombelli (iTelescope天文台, 0.15-m f/7 屈折望遠鏡, Siding 
Spring)や佐藤英貴氏(東京都文京区, iTelescope Sierra Remote天文台, 0.61-m f/6.5 アストロ
グラフ+輝度フィルター, Auberry, カリフォルニア州, 遠隔操作)らCCD位置観測者によって彗星状
と観測された。

発見位置は次のとおり、

     2017 UT             R.A. (2000) Decl.       Mag.
     Jan. 26.43489   12 55 27.44   -24 29 59.2   19.2
          26.43972   12 55 27.37   -24 30 00.6   19.0
          26.44461   12 55 27.34   -24 30 01.8   19.6
          26.45417   12 55 27.24   -24 30 05.0   19.2
          26.45893   12 55 27.22   -24 30 06.6   19.4

暫定放物線軌道要素と位置推算表は次のとおり、

Orbital elements:
    C/2017 B3 (LINEAR)
T 2019 Jan. 29.76814 TT                                 MPCW
q   3.8399550            (2000.0)            P               Q
                   Peri.  285.78640     +0.29268376     +0.95574363
                   Node     2.11212     -0.19876665     +0.09133360
e   1.0            Incl.   54.05816     -0.93532242     +0.27966460
>From 51 observations 2017 Jan. 26-Feb. 2.

Ephemeris:
    C/2017 B3 (LINEAR)
Date    TT    R. A. (2000) Decl.     Delta      r     Elong.  Phase   m1
2017 01 05    12 55 40.2 -22 37 40   7.2968  7.2456    83.1     7.7  18.9
...
2017 01 20    12 56 00.0 -23 57 42   6.9620  7.1527    97.2     7.8  18.8
...
2017 01 28    12 55 15.5 -24 37 35   6.7867  7.1031   104.8     7.7  18.7
...
2017 02 03    12 54 15.3 -25 05 47   6.6589  7.0660   110.6     7.5  18.6
2017 02 04    12 54 03.0 -25 10 20   6.6379  7.0598   111.6     7.5  18.6
2017 02 05    12 53 50.1 -25 14 49   6.6171  7.0537   112.5     7.4  18.6
...
2017 02 11    12 52 18.9 -25 40 42   6.4952  7.0166   118.3     7.1  18.5
...
2017 02 19    12 49 41.8 -26 12 00   6.3414  6.9671   125.9     6.6  18.4
...
2017 03 06    12 43 04.2 -26 59 02   6.0878  6.8746   139.7     5.4  18.3

(CBET 4354、MPEC 2017-C45)

スレッド表示 | 新しいものから 前のトピック | 次のトピック | トップ

投稿するにはまず登録を
 
© 1999-2013 Tsutomu Seki.